Regional Weather Roundup
Issued by NWS Sioux Falls, SD

Home | Current Version | Previous Version | Text Only | Print | Product List | Glossary Off
Versions: 1 2 3 4 5 6 7 8 9 10 11 12 13 14 15 16 17 18 19 20 21 22 23 24 25 26 27 28 29 30 31 32 33 34 35 36 37 38 39 40 41 42 43 44 45 46 47 48 49 50

000
ASUS43 KFSD 272010
RWRFSD

WEATHER ROUNDUP FOR SE SOUTH DAKOTA/SW MINNESOTA/NW IOWA
NATIONAL WEATHER SERVICE SIOUX FALLS SD
200 PM CST SAT DEC 27 2014

NOTE: "FAIR" INDICATES FEW OR NO CLOUDS BELOW 12,000 FEET WITH NO
SIGNIFICANT WEATHER AND OR OBSTRUCTIONS TO VISIBILITY.


SDZ038>040-050-052>070-272100-
SOUTHEAST SOUTH DAKOTA

CITY           SKY/WX    TMP DP  RH WIND       PRES   REMARKS
CHAMBERLAIN    SUNNY     21  14  73 W5        30.14F WCI  15
HURON          PTSUNNY   16  10  77 SW6       30.14F WCI   7
MADISON        FAIR      14  14 100 W10       30.11F WCI   1
MITCHELL       SUNNY     20  13  74 SW8       30.16F WCI  10
SIOUX FALLS    SUNNY     15   9  76 W8        30.16F WCI   4
WINNER         FAIR      24  15  68 W9        30.13F WCI  14
YANKTON        SUNNY     19  10  68 NW10      30.20F WCI   8
$$

MNZ071-072-080-081-089-090-097-098-272100-
SOUTHWEST MINNESOTA

CITY           SKY/WX    TMP DP  RH WIND       PRES   REMARKS
FAIRMONT       SUNNY     19   7  58 NW12      30.11F WCI   7
JACKSON        SUNNY     19  10  68 W13       30.11F WCI   7
LUVERNE        SUNNY     18  12  79 W9        30.15S WCI   6
MARSHALL       SUNNY     19   9  63 W10       30.12F WCI   8
MONTEVIDEO     SUNNY     21  16  79 W8        30.12F WCI  12
PIPESTONE      SUNNY     12   9  85 W9        30.10F WCI   0
REDWOOD FALLS  SUNNY     16   8  71 W10       30.13F WCI   4
TRACY          SUNNY     19  13  76 W7        30.11F WCI  10
WINDOM         SUNNY     18  10  73 W12       30.11F WCI   5
WORTHINGTON    SUNNY     18 -27  12 W10       30.12F WCI   6
$$

IAZ001>003-012>014-020>022-031-032-NEZ013-014-SDZ071-272100-
NORTHWEST IOWA

CITY           SKY/WX    TMP DP  RH WIND       PRES   REMARKS
CHEROKEE       PTSUNNY   19  15  86 W8        30.18F WCI   8
DENISON        PTSUNNY   21  18  86 NW12      30.18R WCI   9
ESTHERVILLE    SUNNY     19  11  70 NW13      30.12F WCI   6
LE MARS        SUNNY     18  12  79 W8        30.19F WCI   7
ORANGE CITY    SUNNY     18  10  73 W9        30.16F WCI   6
SHELDON        SUNNY     18  12  79 W12       30.14F WCI   5
SIOUX CITY     SUNNY     21  12  68 NW8       30.21F WCI  11
SPENCER        SUNNY     20  12  71 W13       30.15F WCI   7
STORM LAKE     PTSUNNY   18  14  86 NW15      30.16S WCI   3
$$

ABBREVIATIONS USED IN REMARKS
   TC - TEMPERATURE IN CELSIUS
  WCI - WIND CHILL INDEX
   HX - HEAT INDEX
  VSB - VISIBILITY




USA.gov is the U.S. government's official web portal to all federal, state and local government web resources and services.